Time,TemperatureF,DewpointF,PressureIn,WindDirection,WindDirectionDegrees,WindSpeedMPH,WindSpeedGustMPH,Humidity,HourlyPrecipIn,Conditions,Clouds,dailyrainin,SoftwareType,DateUTC
2013-03-13 00:00:00,31.7,28.0,29.97,WSW,248,9.0,18.0,86,0.00,,SKC,0.00,VWS V14.01,2013-03-13 04:00:00,
2013-03-13 00:04:00,31.7,28.0,29.97,West,267,7.0,18.0,86,0.00,,,0.00,weatherlink.com 1.10,2013-03-13 04:04:00,
2013-03-13 00:19:00,31.2,28.0,29.97,WSW,246,8.0,13.0,86,0.00,,,0.00,weatherlink.com 1.10,2013-03-13 04:19:00,
2013-03-13 00:30:00,30.9,27.2,29.96,WSW,248,7.0,13.0,86,0.00,,SKC,0.00,VWS V14.01,2013-03-13 04:30:00,
2013-03-13 00:34:00,30.9,27.0,29.96,WSW,237,10.0,11.0,86,0.00,,,0.00,weatherlink.com 1.10,2013-03-13 04:34:00,
2013-03-13 00:49:00,30.7,27.0,29.96,WSW,241,11.0,13.0,87,0.00,,,0.00,weatherlink.com 1.10,2013-03-13 04:49:00,
2013-03-13 01:00:00,31.0,27.3,29.96,SW,225,8.0,14.0,86,0.00,,SKC,0.00,VWS V14.01,2013-03-13 05:00:00,
2013-03-13 01:04:00,31.1,27.0,29.96,WSW,244,7.0,15.0,86,0.00,,,0.00,weatherlink.com 1.10,2013-03-13 05:04:00,
2013-03-13 01:19:00,31.3,27.0,29.96,SW,232,10.0,16.0,84,0.00,,,0.00,weatherlink.com 1.10,2013-03-13 05:19:00,
2013-03-13 01:30:00,31.5,26.9,29.95,WSW,248,10.0,18.0,83,0.00,,SKC,0.00,VWS V14.01,2013-03-13 05:30:00,
2013-03-13 01:34:00,31.5,27.0,29.95,SW,223,9.0,17.0,83,0.00,,,0.00,weatherlink.com 1.10,2013-03-13 05:34:00,
2013-03-13 01:49:00,31.2,26.0,29.95,WSW,246,5.0,16.0,81,0.00,,,0.00,weatherlink.com 1.10,2013-03-13 05:49:00,
2013-03-13 02:00:00,30.7,25.6,29.95,WSW,248,9.0,16.0,81,0.00,,SKC,0.00,VWS V14.01,2013-03-13 06:00:00,
2013-03-13 02:04:00,30.7,26.0,29.95,WSW,252,10.0,15.0,81,0.00,,,0.00,weatherlink.com 1.10,2013-03-13 06:04:00,
2013-03-13 02:19:00,30.5,25.0,29.95,West,273,10.0,15.0,81,0.00,,,0.00,weatherlink.com 1.10,2013-03-13 06:19:00,
2013-03-13 02:30:00,30.5,25.4,29.96,WSW,248,9.0,17.0,81,0.00,,SKC,0.00,VWS V14.01,2013-03-13 06:30:00,
2013-03-13 02:34:00,30.4,25.0,29.96,WSW,237,10.0,16.0,81,0.00,,,0.00,weatherlink.com 1.10,2013-03-13 06:34:00,
2013-03-13 02:49:00,30.4,25.0,29.95,WSW,257,6.0,17.0,81,0.00,,,0.00,weatherlink.com 1.10,2013-03-13 06:49:00,
2013-03-13 03:00:00,30.4,25.3,29.96,WSW,248,11.0,18.0,81,0.00,,SKC,0.00,VWS V14.01,2013-03-13 07:00:00,
2013-03-13 03:04:00,30.3,25.0,29.95,West,264,14.0,22.0,81,0.00,,,0.00,weatherlink.com 1.10,2013-03-13 07:04:00,
2013-03-13 03:20:00,29.7,24.0,29.95,West,264,12.0,23.0,80,0.00,,,0.00,weatherlink.com 1.10,2013-03-13 07:20:00,
2013-03-13 03:30:00,29.5,24.4,29.95,WSW,248,10.0,23.0,81,0.00,,SKC,0.00,VWS V14.01,2013-03-13 07:30:00,
2013-03-13 03:34:00,29.5,25.0,29.95,WSW,252,9.0,15.0,82,0.00,,,0.00,weatherlink.com 1.10,2013-03-13 07:34:00,
2013-03-13 03:49:00,29.4,24.0,29.95,West,275,8.0,18.0,79,0.00,,,0.00,weatherlink.com 1.10,2013-03-13 07:49:00,
2013-03-13 04:00:00,29.0,23.0,29.96,WSW,248,9.0,21.0,78,0.00,,SKC,0.00,VWS V14.01,2013-03-13 08:00:00,
2013-03-13 04:04:00,28.9,23.0,29.96,WSW,252,5.0,21.0,78,0.00,,,0.00,weatherlink.com 1.10,2013-03-13 08:04:00,
2013-03-13 04:19:00,28.4,22.0,29.95,SW,217,12.0,23.0,78,0.00,,,0.00,weatherlink.com 1.10,2013-03-13 08:19:00,
2013-03-13 04:30:00,28.1,22.1,29.95,WSW,248,9.0,23.0,78,0.00,,SKC,0.00,VWS V14.01,2013-03-13 08:30:00,
2013-03-13 04:34:00,28.1,22.0,29.95,WSW,245,9.0,17.0,78,0.00,,,0.00,weatherlink.com 1.10,2013-03-13 08:34:00,
2013-03-13 04:49:00,28.1,22.0,29.96,WSW,254,6.0,15.0,78,0.00,,,0.00,weatherlink.com 1.10,2013-03-13 08:49:00,
2013-03-13 05:00:00,28.2,22.2,29.96,WSW,248,9.0,18.0,78,0.00,,SKC,0.00,VWS V14.01,2013-03-13 09:00:00,
2013-03-13 05:05:00,28.2,22.0,29.96,WSW,252,5.0,16.0,78,0.00,,,0.00,weatherlink.com 1.10,2013-03-13 09:05:00,
2013-03-13 05:20:00,28.3,23.0,29.96,WSW,252,7.0,19.0,79,0.00,,,0.00,weatherlink.com 1.10,2013-03-13 09:20:00,
2013-03-13 05:30:00,28.2,22.5,29.97,WSW,248,10.0,22.0,79,0.00,,SKC,0.00,VWS V14.01,2013-03-13 09:30:00,
2013-03-13 05:35:00,28.1,22.0,29.97,West,280,8.0,22.0,79,0.00,,,0.00,weatherlink.com 1.10,2013-03-13 09:35:00,
2013-03-13 05:50:00,27.7,23.0,29.98,West,267,8.0,22.0,82,0.00,,,0.00,weatherlink.com 1.10,2013-03-13 09:50:00,
2013-03-13 06:00:00,27.3,23.1,29.98,WSW,248,10.0,22.0,84,0.00,,SKC,0.00,VWS V14.01,2013-03-13 10:00:00,
2013-03-13 06:05:00,27.2,23.0,29.98,WSW,254,7.0,14.0,84,0.00,,,0.00,weatherlink.com 1.10,2013-03-13 10:05:00,
2013-03-13 06:20:00,26.9,23.0,29.98,WSW,243,7.0,18.0,85,0.00,,,0.00,weatherlink.com 1.10,2013-03-13 10:20:00,
2013-03-13 06:30:00,26.6,23.3,29.99,WSW,248,10.0,18.0,87,0.00,,SKC,0.00,VWS V14.01,2013-03-13 10:30:00,
2013-03-13 06:35:00,26.6,23.0,29.99,WSW,251,11.0,16.0,86,0.00,,,0.00,weatherlink.com 1.10,2013-03-13 10:35:00,
2013-03-13 06:50:00,26.3,23.0,29.99,WSW,250,5.0,16.0,87,0.00,,,0.00,weatherlink.com 1.10,2013-03-13 10:50:00,
2013-03-13 07:00:00,26.3,23.0,29.99,WSW,248,10.0,17.0,87,0.00,,SKC,0.00,VWS V14.01,2013-03-13 11:00:00,
2013-03-13 07:05:00,26.2,23.0,29.99,West,269,11.0,17.0,87,0.00,,,0.00,weatherlink.com 1.10,2013-03-13 11:05:00,
2013-03-13 07:20:00,26.3,23.0,30.00,SW,232,6.0,18.0,86,0.00,,,0.00,weatherlink.com 1.10,2013-03-13 11:20:00,
2013-03-13 07:30:00,26.4,22.8,30.00,WSW,248,11.0,20.0,86,0.00,,SKC,0.00,VWS V14.01,2013-03-13 11:30:00,
2013-03-13 07:35:00,26.5,23.0,30.00,West,267,9.0,20.0,85,0.00,,,0.00,weatherlink.com 1.10,2013-03-13 11:35:00,
2013-03-13 07:50:00,26.5,23.0,30.00,WSW,250,6.0,21.0,85,0.00,,,0.00,weatherlink.com 1.10,2013-03-13 11:50:00,
2013-03-13 08:00:00,26.3,22.7,30.00,WSW,248,10.0,21.0,86,0.00,,SKC,0.00,VWS V14.01,2013-03-13 12:00:00,
2013-03-13 08:05:00,26.3,23.0,30.01,WSW,238,10.0,19.0,86,0.00,,,0.00,weatherlink.com 1.10,2013-03-13 12:05:00,
2013-03-13 08:20:00,26.2,23.0,30.01,WSW,246,7.0,16.0,86,0.00,,,0.00,weatherlink.com 1.10,2013-03-13 12:20:00,
2013-03-13 08:30:00,26.2,22.6,30.02,WSW,248,10.0,20.0,86,0.00,,SKC,0.00,VWS V14.01,2013-03-13 12:30:00,
2013-03-13 08:35:00,26.3,22.0,30.02,West,271,6.0,17.0,85,0.00,,,0.00,weatherlink.com 1.10,2013-03-13 12:35:00,
2013-03-13 08:50:00,26.7,23.0,30.02,West,278,9.0,19.0,84,0.00,,,0.00,weatherlink.com 1.10,2013-03-13 12:50:00,
2013-03-13 09:00:00,26.5,22.3,30.03,WSW,248,10.0,21.0,84,0.00,,SKC,0.00,VWS V14.01,2013-03-13 13:00:00,
2013-03-13 09:05:00,26.4,23.0,30.03,West,261,11.0,21.0,85,0.00,,,0.00,weatherlink.com 1.10,2013-03-13 13:05:00,
2013-03-13 09:20:00,26.2,23.0,30.04,West,260,5.0,18.0,86,0.00,,,0.00,weatherlink.com 1.10,2013-03-13 13:20:00,
2013-03-13 09:30:00,26.2,22.9,30.04,West,270,9.0,21.0,87,0.00,,SKC,0.00,VWS V14.01,2013-03-13 13:30:00,
2013-03-13 09:35:00,26.0,23.0,30.05,WSW,244,10.0,19.0,87,0.00,,,0.00,weatherlink.com 1.10,2013-03-13 13:35:00,
2013-03-13 09:50:00,25.6,23.0,30.05,WNW,302,5.0,13.0,88,0.00,,,0.00,weatherlink.com 1.10,2013-03-13 13:50:00,
2013-03-13 10:00:00,26.1,22.8,30.06,WNW,292,7.0,19.0,87,0.00,,SKC,0.00,VWS V14.01,2013-03-13 14:00:00,
2013-03-13 10:05:00,26.3,23.0,30.06,WNW,292,3.0,15.0,87,0.00,,,0.00,weatherlink.com 1.10,2013-03-13 14:05:00,
2013-03-13 10:20:00,27.0,23.0,30.06,West,273,10.0,16.0,84,0.00,,,0.00,weatherlink.com 1.10,2013-03-13 14:20:00,
2013-03-13 10:35:00,27.4,22.0,30.07,West,265,10.0,10.0,80,0.00,,SKC,0.00,VWS V14.01,2013-03-13 14:35:00,
2013-03-13 10:40:00,27.2,21.6,30.07,West,279,9.0,14.0,79,0.00,,SKC,0.00,VWS V14.01,2013-03-13 14:40:00,
2013-03-13 10:45:00,27.5,21.9,30.07,NW,316,10.0,16.0,79,0.00,,SKC,0.00,VWS V14.01,2013-03-13 14:45:00,
2013-03-13 10:50:00,27.9,21.9,30.08,WSW,256,10.0,17.0,78,0.00,,SKC,0.00,VWS V14.01,2013-03-13 14:50:00,
2013-03-13 10:55:00,28.0,21.7,30.08,WNW,296,5.0,17.0,77,0.00,,SKC,0.00,VWS V14.01,2013-03-13 14:55:00,
2013-03-13 11:00:00,28.3,22.0,30.08,WSW,253,6.0,11.0,77,0.00,,SKC,0.00,VWS V14.01,2013-03-13 15:00:00,
2013-03-13 11:05:00,28.5,21.6,30.08,WNW,284,6.0,15.0,75,0.00,,SKC,0.00,VWS V14.01,2013-03-13 15:05:00,
2013-03-13 11:10:00,28.6,22.0,30.09,WNW,300,10.0,19.0,76,0.00,,SKC,0.00,VWS V14.01,2013-03-13 15:10:00,
2013-03-13 11:15:00,28.6,22.0,30.09,WNW,282,6.0,16.0,76,0.00,,SKC,0.00,VWS V14.01,2013-03-13 15:15:00,
2013-03-13 11:20:00,28.8,21.9,30.09,WNW,287,11.0,18.0,75,0.00,,SKC,0.00,VWS V14.01,2013-03-13 15:20:00,
2013-03-13 11:25:00,28.4,21.2,30.09,WNW,296,11.0,20.0,74,0.00,,SKC,0.00,VWS V14.01,2013-03-13 15:25:00,
2013-03-13 11:30:00,28.4,21.5,30.09,West,265,13.0,13.0,75,0.00,,SKC,0.00,VWS V14.01,2013-03-13 15:30:00,
2013-03-13 11:35:00,28.5,21.6,30.10,WNW,290,8.0,15.0,75,0.00,,SKC,0.00,VWS V14.01,2013-03-13 15:35:00,
2013-03-13 11:40:00,28.6,21.1,30.10,WNW,288,7.0,15.0,73,0.00,,SKC,0.00,VWS V14.01,2013-03-13 15:40:00,
2013-03-13 11:45:00,29.5,22.6,30.10,NW,325,9.0,12.0,75,0.00,,SKC,0.00,VWS V14.01,2013-03-13 15:45:00,
2013-03-13 11:50:00,29.4,21.8,30.10,WNW,282,11.0,18.0,73,0.00,,SKC,0.00,VWS V14.01,2013-03-13 15:50:00,
2013-03-13 11:55:00,29.7,22.1,30.10,West,259,19.0,21.0,73,0.00,,SKC,0.00,VWS V14.01,2013-03-13 15:55:00,
2013-03-13 12:00:00,29.0,21.4,30.11,NW,315,10.0,16.0,73,0.00,,SKC,0.00,VWS V14.01,2013-03-13 16:00:00,
2013-03-13 12:01:00,29.3,21.4,30.11,West,281,6.0,12.0,72,0.00,,SKC,0.00,VWS V14.01,2013-03-13 16:01:00,
2013-03-13 12:06:00,28.4,21.5,30.11,West,267,9.0,10.0,75,0.00,,SKC,0.00,VWS V14.01,2013-03-13 16:06:00,
2013-03-13 12:11:00,27.5,21.5,30.11,WNW,301,6.0,10.0,78,0.00,,SKC,0.00,VWS V14.01,2013-03-13 16:11:00,
2013-03-13 12:16:00,27.6,22.0,30.11,NW,314,14.0,14.0,79,0.00,,SKC,0.00,VWS V14.01,2013-03-13 16:16:00,
2013-03-13 12:21:00,27.8,21.5,30.11,West,273,7.0,17.0,77,0.00,,SKC,0.00,VWS V14.01,2013-03-13 16:21:00,
2013-03-13 12:26:00,28.1,21.2,30.11,WNW,302,10.0,16.0,75,0.00,,SKC,0.00,VWS V14.01,2013-03-13 16:26:00,
2013-03-13 12:30:00,29.5,21.9,30.11,WNW,298,17.0,25.0,73,0.00,,SKC,0.00,VWS V14.01,2013-03-13 16:30:00,
2013-03-13 12:31:00,29.3,22.4,30.11,WNW,295,13.0,25.0,75,0.00,,SKC,0.00,VWS V14.01,2013-03-13 16:31:00,
2013-03-13 12:36:00,29.9,22.0,30.11,WSW,251,7.0,17.0,72,0.00,,SKC,0.00,VWS V14.01,2013-03-13 16:36:00,
2013-03-13 12:41:00,30.0,21.4,30.12,NW,306,15.0,21.0,70,0.00,,SKC,0.00,VWS V14.01,2013-03-13 16:41:00,
2013-03-13 12:47:00,29.9,21.3,30.11,WNW,301,6.0,20.0,70,0.00,,SKC,0.00,VWS V14.01,2013-03-13 16:47:00,
2013-03-13 12:52:00,31.1,22.5,30.11,West,261,14.0,16.0,70,0.00,,SKC,0.00,VWS V14.01,2013-03-13 16:52:00,
2013-03-13 12:57:00,31.4,22.1,30.12,WSW,241,10.0,15.0,68,0.00,,SKC,0.00,VWS V14.01,2013-03-13 16:57:00,
2013-03-13 13:00:00,30.0,20.4,30.12,West,273,9.0,22.0,67,0.00,,SKC,0.00,VWS V14.01,2013-03-13 17:00:00,
2013-03-13 13:02:00,30.3,20.7,30.12,WNW,294,13.0,22.0,67,0.00,,SKC,0.00,VWS V14.01,2013-03-13 17:02:00,
2013-03-13 13:07:00,30.0,21.4,30.12,West,270,14.0,16.0,70,0.00,,SKC,0.00,VWS V14.01,2013-03-13 17:07:00,
2013-03-13 13:12:00,30.8,21.5,30.12,West,265,14.0,20.0,68,0.00,,SKC,0.00,VWS V14.01,2013-03-13 17:12:00,
2013-03-13 13:17:00,30.7,21.8,30.13,West,265,5.0,9.0,69,0.00,,SKC,0.00,VWS V14.01,2013-03-13 17:17:00,
2013-03-13 13:22:00,30.0,21.1,30.13,West,262,7.0,16.0,69,0.00,,SKC,0.00,VWS V14.01,2013-03-13 17:22:00,
2013-03-13 13:27:00,29.9,21.3,30.13,West,261,5.0,11.0,70,0.00,,SKC,0.00,VWS V14.01,2013-03-13 17:27:00,
2013-03-13 13:30:00,30.2,20.6,30.13,WNW,301,6.0,11.0,67,0.00,,SKC,0.00,VWS V14.01,2013-03-13 17:30:00,
2013-03-13 13:32:00,30.1,20.5,30.13,SW,233,9.0,15.0,67,0.00,,SKC,0.00,VWS V14.01,2013-03-13 17:32:00,
2013-03-13 13:37:00,30.1,20.8,30.13,SW,236,6.0,18.0,68,0.00,,SKC,0.00,VWS V14.01,2013-03-13 17:37:00,
2013-03-13 13:42:00,30.6,21.6,30.13,NW,318,6.0,17.0,69,0.00,,SKC,0.00,VWS V14.01,2013-03-13 17:42:00,
2013-03-13 13:47:00,31.9,22.2,30.13,WNW,288,12.0,16.0,67,0.00,,SKC,0.00,VWS V14.01,2013-03-13 17:47:00,
2013-03-13 13:52:00,32.3,22.2,30.13,West,269,8.0,10.0,66,0.00,,SKC,0.00,VWS V14.01,2013-03-13 17:52:00,
2013-03-13 13:57:00,32.1,21.7,30.13,WSW,248,17.0,22.0,65,0.00,,SKC,0.00,VWS V14.01,2013-03-13 17:57:00,
2013-03-13 14:00:00,31.7,21.7,30.13,West,263,10.0,15.0,66,0.00,,SKC,0.00,VWS V14.01,2013-03-13 18:00:00,
2013-03-13 14:02:00,31.7,21.7,30.13,West,263,10.0,15.0,66,0.00,,SKC,0.00,VWS V14.01,2013-03-13 18:02:00,
2013-03-13 14:07:00,31.0,20.6,30.14,WNW,284,7.0,20.0,65,0.00,,SKC,0.00,VWS V14.01,2013-03-13 18:07:00,
2013-03-13 14:13:00,30.1,20.5,30.14,West,275,12.0,18.0,67,0.00,,SKC,0.00,VWS V14.01,2013-03-13 18:13:00,
2013-03-13 14:17:00,29.9,20.6,30.14,WNW,283,15.0,24.0,68,0.00,,SKC,0.00,VWS V14.01,2013-03-13 18:17:00,
2013-03-13 14:22:00,30.0,21.1,30.14,WNW,293,15.0,16.0,69,0.00,,SKC,0.00,VWS V14.01,2013-03-13 18:22:00,
2013-03-13 14:28:00,30.2,21.6,30.14,WSW,257,14.0,14.0,70,0.00,,SKC,0.00,VWS V14.01,2013-03-13 18:28:00,
2013-03-13 14:30:00,30.1,21.9,30.14,WNW,290,4.0,13.0,71,0.00,,SKC,0.00,VWS V14.01,2013-03-13 18:30:00,
2013-03-13 14:33:00,30.1,21.9,30.14,WNW,290,4.0,13.0,71,0.00,,SKC,0.00,VWS V14.01,2013-03-13 18:33:00,
2013-03-13 14:38:00,29.9,21.0,30.14,WSW,257,10.0,16.0,69,0.00,,SKC,0.00,VWS V14.01,2013-03-13 18:38:00,
2013-03-13 14:43:00,29.7,21.5,30.14,West,269,9.0,19.0,71,0.00,,SKC,0.00,VWS V14.01,2013-03-13 18:43:00,
2013-03-13 14:48:00,29.4,22.5,30.14,WSW,257,9.0,13.0,75,0.00,,SKC,0.00,VWS V14.01,2013-03-13 18:48:00,
2013-03-13 14:53:00,28.8,21.9,30.14,WNW,294,5.0,17.0,75,0.00,,SKC,0.00,VWS V14.01,2013-03-13 18:53:00,
2013-03-13 14:58:00,29.0,21.4,30.14,WNW,287,8.0,13.0,73,0.00,,SKC,0.00,VWS V14.01,2013-03-13 18:58:00,
2013-03-13 15:00:00,29.0,21.1,30.14,West,267,4.0,16.0,72,0.00,,SKC,0.00,VWS V14.01,2013-03-13 19:00:00,
2013-03-13 15:03:00,29.1,21.2,30.15,WNW,286,5.0,16.0,72,0.00,,SKC,0.00,VWS V14.01,2013-03-13 19:03:00,
2013-03-13 15:08:00,29.1,21.9,30.15,WSW,250,9.0,17.0,74,0.00,,SKC,0.00,VWS V14.01,2013-03-13 19:08:00,
2013-03-13 15:13:00,28.5,22.5,30.15,WNW,284,7.0,17.0,78,0.00,,SKC,0.00,VWS V14.01,2013-03-13 19:13:00,
2013-03-13 15:18:00,27.9,22.2,30.15,WSW,248,6.0,20.0,79,0.00,,SKC,0.00,VWS V14.01,2013-03-13 19:18:00,
2013-03-13 15:23:00,27.8,22.1,30.15,WSW,242,15.0,20.0,79,0.00,,SKC,0.00,VWS V14.01,2013-03-13 19:23:00,
2013-03-13 15:28:00,27.7,22.4,30.15,West,275,7.0,18.0,80,0.00,,SKC,0.00,VWS V14.01,2013-03-13 19:28:00,
2013-03-13 15:30:00,27.8,22.7,30.15,WSW,254,19.0,20.0,81,0.00,,SKC,0.00,VWS V14.01,2013-03-13 19:30:00,
2013-03-13 15:33:00,27.8,22.7,30.15,WSW,256,7.0,20.0,81,0.00,,SKC,0.00,VWS V14.01,2013-03-13 19:33:00,
2013-03-13 15:38:00,28.1,22.4,30.16,WNW,292,11.0,19.0,79,0.00,,SKC,0.00,VWS V14.01,2013-03-13 19:38:00,
2013-03-13 15:43:00,28.2,22.2,30.16,West,271,7.0,17.0,78,0.00,,SKC,0.00,VWS V14.01,2013-03-13 19:43:00,
2013-03-13 15:48:00,28.6,22.3,30.16,West,260,5.0,13.0,77,0.00,,SKC,0.00,VWS V14.01,2013-03-13 19:48:00,
2013-03-13 15:53:00,29.1,22.2,30.16,West,273,18.0,20.0,75,0.00,,SKC,0.00,VWS V14.01,2013-03-13 19:53:00,
2013-03-13 15:58:00,29.1,21.2,30.16,WSW,258,11.0,13.0,72,0.00,,SKC,0.00,VWS V14.01,2013-03-13 19:58:00,
2013-03-13 16:00:00,29.0,20.5,30.16,NW,308,13.0,19.0,70,0.00,,SKC,0.00,VWS V14.01,2013-03-13 20:00:00,
2013-03-13 16:03:00,29.0,20.5,30.16,WSW,246,10.0,19.0,70,0.00,,SKC,0.00,VWS V14.01,2013-03-13 20:03:00,
2013-03-13 16:08:00,29.3,21.7,30.16,West,267,11.0,11.0,73,0.00,,SKC,0.00,VWS V14.01,2013-03-13 20:08:00,
2013-03-13 16:13:00,29.6,22.0,30.16,West,266,13.0,13.0,73,0.00,,SKC,0.00,VWS V14.01,2013-03-13 20:13:00,
2013-03-13 16:18:00,29.6,21.0,30.16,WNW,286,14.0,16.0,70,0.00,,SKC,0.00,VWS V14.01,2013-03-13 20:18:00,
2013-03-13 16:23:00,29.6,21.0,30.17,WSW,243,12.0,14.0,70,0.00,,SKC,0.00,VWS V14.01,2013-03-13 20:23:00,
2013-03-13 16:28:00,29.6,21.4,30.17,West,272,16.0,18.0,71,0.00,,SKC,0.00,VWS V14.01,2013-03-13 20:28:00,
2013-03-13 16:30:00,29.4,20.8,30.17,WSW,257,18.0,19.0,70,0.00,,SKC,0.00,VWS V14.01,2013-03-13 20:30:00,
2013-03-13 16:33:00,29.3,20.7,30.17,WSW,242,14.0,20.0,70,0.00,,SKC,0.00,VWS V14.01,2013-03-13 20:33:00,
2013-03-13 16:38:00,29.3,20.7,30.17,West,267,9.0,18.0,70,0.00,,SKC,0.00,VWS V14.01,2013-03-13 20:38:00,
2013-03-13 16:43:00,29.3,21.1,30.18,West,262,14.0,14.0,71,0.00,,SKC,0.00,VWS V14.01,2013-03-13 20:43:00,
2013-03-13 16:48:00,29.5,21.3,30.18,West,262,9.0,18.0,71,0.00,,SKC,0.00,VWS V14.01,2013-03-13 20:48:00,
2013-03-13 16:53:00,29.9,21.7,30.18,West,260,7.0,15.0,71,0.00,,SKC,0.00,VWS V14.01,2013-03-13 20:53:00,
2013-03-13 16:58:00,29.7,20.8,30.18,WSW,258,11.0,18.0,69,0.00,,SKC,0.00,VWS V14.01,2013-03-13 20:58:00,
2013-03-13 17:00:00,29.3,21.1,30.18,WNW,284,14.0,17.0,71,0.00,,SKC,0.00,VWS V14.01,2013-03-13 21:00:00,
2013-03-13 17:03:00,29.3,21.1,30.18,NW,326,11.0,17.0,71,0.00,,SKC,0.00,VWS V14.01,2013-03-13 21:03:00,
2013-03-13 17:08:00,28.4,21.2,30.19,WNW,284,9.0,17.0,74,0.00,,SKC,0.00,VWS V14.01,2013-03-13 21:08:00,
2013-03-13 17:13:00,28.3,21.7,30.19,WNW,285,8.0,15.0,76,0.00,,SKC,0.00,VWS V14.01,2013-03-13 21:13:00,
2013-03-13 17:18:00,28.6,21.4,30.19,WSW,246,5.0,15.0,74,0.00,,SKC,0.00,VWS V14.01,2013-03-13 21:18:00,
2013-03-13 17:23:00,28.8,21.6,30.19,WSW,254,6.0,16.0,74,0.00,,SKC,0.00,VWS V14.01,2013-03-13 21:23:00,
2013-03-13 17:28:00,28.6,21.7,30.19,WSW,238,11.0,13.0,75,0.00,,SKC,0.00,VWS V14.01,2013-03-13 21:28:00,
2013-03-13 17:30:00,28.6,21.7,30.19,WSW,249,11.0,20.0,75,0.00,,SKC,0.00,VWS V14.01,2013-03-13 21:30:00,
2013-03-13 17:33:00,28.6,21.7,30.19,WSW,256,12.0,20.0,75,0.00,,SKC,0.00,VWS V14.01,2013-03-13 21:33:00,
2013-03-13 17:38:00,28.3,21.1,30.19,NW,304,13.0,19.0,74,0.00,,SKC,0.00,VWS V14.01,2013-03-13 21:38:00,
2013-03-13 17:43:00,28.3,21.4,30.20,West,261,5.0,14.0,75,0.00,,SKC,0.00,VWS V14.01,2013-03-13 21:43:00,
2013-03-13 17:48:00,28.4,22.1,30.20,WNW,298,20.0,20.0,77,0.00,,SKC,0.00,VWS V14.01,2013-03-13 21:48:00,
2013-03-13 17:53:00,27.8,21.9,30.20,NW,308,10.0,14.0,78,0.00,,SKC,0.00,VWS V14.01,2013-03-13 21:53:00,
2013-03-13 17:58:00,27.4,22.0,30.20,WNW,290,8.0,16.0,80,0.00,,SKC,0.00,VWS V14.01,2013-03-13 21:58:00,
2013-03-13 18:00:00,27.1,22.1,30.20,West,261,13.0,16.0,81,0.00,,SKC,0.00,VWS V14.01,2013-03-13 22:00:00,
2013-03-13 18:03:00,27.0,22.0,30.20,WNW,285,5.0,16.0,81,0.00,,SKC,0.00,VWS V14.01,2013-03-13 22:03:00,
2013-03-13 18:08:00,27.2,22.1,30.20,West,271,5.0,12.0,81,0.00,,SKC,0.00,VWS V14.01,2013-03-13 22:08:00,
2013-03-13 18:14:00,28.0,22.6,30.20,SW,236,9.0,22.0,80,0.00,,SKC,0.00,VWS V14.01,2013-03-13 22:14:00,
2013-03-13 18:19:00,28.6,22.6,30.20,West,272,13.0,14.0,78,0.00,,SKC,0.00,VWS V14.01,2013-03-13 22:19:00,
2013-03-13 18:24:00,28.6,21.7,30.21,NNW,337,14.0,14.0,75,0.00,,SKC,0.00,VWS V14.01,2013-03-13 22:24:00,
2013-03-13 18:29:00,28.8,21.6,30.21,West,281,10.0,22.0,74,0.00,,SKC,0.00,VWS V14.01,2013-03-13 22:29:00,
2013-03-13 18:30:00,28.8,20.9,30.21,WNW,282,15.0,15.0,72,0.00,,SKC,0.00,VWS V14.01,2013-03-13 22:30:00,
2013-03-13 18:34:00,28.9,21.0,30.21,West,271,5.0,15.0,72,0.00,,SKC,0.00,VWS V14.01,2013-03-13 22:34:00,
2013-03-13 18:39:00,29.0,21.1,30.21,West,279,6.0,14.0,72,0.00,,SKC,0.00,VWS V14.01,2013-03-13 22:39:00,
2013-03-13 18:44:00,28.9,20.7,30.21,WNW,294,10.0,12.0,71,0.00,,SKC,0.00,VWS V14.01,2013-03-13 22:44:00,
2013-03-13 18:49:00,28.8,20.3,30.21,WNW,290,8.0,14.0,70,0.00,,SKC,0.00,VWS V14.01,2013-03-13 22:49:00,
2013-03-13 18:54:00,28.8,20.6,30.21,West,273,10.0,14.0,71,0.00,,SKC,0.00,VWS V14.01,2013-03-13 22:54:00,
2013-03-13 18:59:00,28.4,19.9,30.21,West,281,3.0,11.0,70,0.00,,SKC,0.00,VWS V14.01,2013-03-13 22:59:00,
2013-03-13 19:00:00,28.4,20.2,30.21,WNW,296,15.0,18.0,71,0.00,,SKC,0.00,VWS V14.01,2013-03-13 23:00:00,
2013-03-13 19:04:00,28.3,19.8,30.21,WNW,303,6.0,15.0,70,0.00,,SKC,0.00,VWS V14.01,2013-03-13 23:04:00,
2013-03-13 19:09:00,28.4,20.2,30.22,WNW,302,16.0,16.0,71,0.00,,SKC,0.00,VWS V14.01,2013-03-13 23:09:00,
2013-03-13 19:14:00,28.3,20.1,30.22,WNW,301,13.0,13.0,71,0.00,,SKC,0.00,VWS V14.01,2013-03-13 23:14:00,
2013-03-13 19:19:00,28.3,20.1,30.22,West,281,3.0,11.0,71,0.00,,SKC,0.00,VWS V14.01,2013-03-13 23:19:00,
2013-03-13 19:24:00,28.2,20.0,30.22,WNW,287,4.0,16.0,71,0.00,,SKC,0.00,VWS V14.01,2013-03-13 23:24:00,
2013-03-13 19:29:00,28.2,20.0,30.23,West,272,10.0,12.0,71,0.00,,SKC,0.00,VWS V14.01,2013-03-13 23:29:00,
2013-03-13 19:30:00,28.1,19.9,30.23,NW,306,9.0,13.0,71,0.00,,SKC,0.00,VWS V14.01,2013-03-13 23:30:00,
2013-03-13 19:34:00,28.1,20.2,30.23,West,266,10.0,18.0,72,0.00,,SKC,0.00,VWS V14.01,2013-03-13 23:34:00,
2013-03-13 19:39:00,28.1,19.3,30.23,WNW,292,6.0,6.0,69,0.00,,SKC,0.00,VWS V14.01,2013-03-13 23:39:00,
2013-03-13 19:44:00,28.0,19.5,30.23,WNW,283,7.0,14.0,70,0.00,,SKC,0.00,VWS V14.01,2013-03-13 23:44:00,
2013-03-13 19:49:00,28.0,19.5,30.23,WNW,286,3.0,15.0,70,0.00,,SKC,0.00,VWS V14.01,2013-03-13 23:49:00,
2013-03-13 19:54:00,27.9,19.4,30.23,WNW,286,4.0,16.0,70,0.00,,SKC,0.00,VWS V14.01,2013-03-13 23:54:00,
2013-03-13 19:59:00,27.8,19.0,30.24,WNW,282,9.0,14.0,69,0.00,,SKC,0.00,VWS V14.01,2013-03-13 23:59:00,
2013-03-13 20:00:00,27.8,19.0,30.24,WNW,289,11.0,14.0,69,0.00,,SKC,0.00,VWS V14.01,2013-03-14 00:00:00,
2013-03-13 20:04:00,27.8,19.0,30.24,NW,322,6.0,14.0,69,0.00,,SKC,0.00,VWS V14.01,2013-03-14 00:04:00,
2013-03-13 20:09:00,27.6,18.8,30.24,West,267,7.0,10.0,69,0.00,,SKC,0.00,VWS V14.01,2013-03-14 00:09:00,
2013-03-13 20:14:00,27.5,18.7,30.24,WNW,302,14.0,14.0,69,0.00,,SKC,0.00,VWS V14.01,2013-03-14 00:14:00,
2013-03-13 20:19:00,27.5,18.7,30.24,West,281,10.0,11.0,69,0.00,,SKC,0.00,VWS V14.01,2013-03-14 00:19:00,
2013-03-13 20:24:00,27.4,18.6,30.24,West,276,8.0,9.0,69,0.00,,SKC,0.00,VWS V14.01,2013-03-14 00:24:00,
2013-03-13 20:29:00,27.3,18.8,30.24,WNW,296,6.0,10.0,70,0.00,,SKC,0.00,VWS V14.01,2013-03-14 00:29:00,
2013-03-13 20:30:00,27.2,18.7,30.24,WSW,257,8.0,12.0,70,0.00,,SKC,0.00,VWS V14.01,2013-03-14 00:30:00,
2013-03-13 20:34:00,27.2,18.7,30.25,West,269,6.0,10.0,70,0.00,,SKC,0.00,VWS V14.01,2013-03-14 00:34:00,
2013-03-13 20:39:00,27.1,19.0,30.25,West,263,5.0,9.0,71,0.00,,SKC,0.00,VWS V14.01,2013-03-14 00:39:00,
2013-03-13 20:44:00,26.9,18.8,30.24,WNW,294,5.0,8.0,71,0.00,,SKC,0.00,VWS V14.01,2013-03-14 00:44:00,
2013-03-13 20:49:00,26.8,18.3,30.25,West,281,4.0,13.0,70,0.00,,SKC,0.00,VWS V14.01,2013-03-14 00:49:00,
2013-03-13 20:54:00,26.7,18.6,30.25,WNW,285,5.0,12.0,71,0.00,,SKC,0.00,VWS V14.01,2013-03-14 00:54:00,
2013-03-13 20:59:00,26.6,18.5,30.25,WNW,288,5.0,9.0,71,0.00,,SKC,0.00,VWS V14.01,2013-03-14 00:59:00,
2013-03-13 21:00:00,26.6,18.5,30.25,West,277,3.0,8.0,71,0.00,,SKC,0.00,VWS V14.01,2013-03-14 01:00:00,
2013-03-13 21:04:00,26.5,18.4,30.25,West,272,5.0,10.0,71,0.00,,SKC,0.00,VWS V14.01,2013-03-14 01:04:00,
2013-03-13 21:09:00,26.5,18.4,30.25,WSW,256,9.0,14.0,71,0.00,,SKC,0.00,VWS V14.01,2013-03-14 01:09:00,
2013-03-13 21:14:00,26.5,18.4,30.25,West,270,5.0,9.0,71,0.00,,SKC,0.00,VWS V14.01,2013-03-14 01:14:00,
2013-03-13 21:19:00,26.4,18.3,30.25,West,261,7.0,13.0,71,0.00,,SKC,0.00,VWS V14.01,2013-03-14 01:19:00,
2013-03-13 21:24:00,26.3,18.2,30.25,West,272,10.0,13.0,71,0.00,,SKC,0.00,VWS V14.01,2013-03-14 01:24:00,
2013-03-13 21:29:00,26.3,17.9,30.25,West,267,7.0,16.0,70,0.00,,SKC,0.00,VWS V14.01,2013-03-14 01:29:00,
2013-03-13 21:30:00,26.3,17.9,30.25,SW,234,8.0,15.0,70,0.00,,SKC,0.00,VWS V14.01,2013-03-14 01:30:00,
2013-03-13 21:34:00,26.3,17.9,30.26,West,262,9.0,14.0,70,0.00,,SKC,0.00,VWS V14.01,2013-03-14 01:34:00,
2013-03-13 21:39:00,26.3,17.9,30.26,WNW,286,11.0,11.0,70,0.00,,SKC,0.00,VWS V14.01,2013-03-14 01:39:00,
2013-03-13 21:44:00,26.2,17.8,30.26,WNW,284,7.0,10.0,70,0.00,,SKC,0.00,VWS V14.01,2013-03-14 01:44:00,
2013-03-13 21:49:00,26.2,17.8,30.26,West,276,10.0,11.0,70,0.00,,SKC,0.00,VWS V14.01,2013-03-14 01:49:00,
2013-03-13 21:54:00,26.2,18.1,30.26,WNW,282,9.0,15.0,71,0.00,,SKC,0.00,VWS V14.01,2013-03-14 01:54:00,
2013-03-13 21:59:00,26.2,18.1,30.26,West,280,6.0,11.0,71,0.00,,SKC,0.00,VWS V14.01,2013-03-14 01:59:00,
2013-03-13 22:00:00,26.1,18.0,30.26,West,270,7.0,17.0,71,0.00,,SKC,0.00,VWS V14.01,2013-03-14 02:00:00,
2013-03-13 22:07:00,26.0,18.0,30.26,West,259,8.0,12.0,71,0.00,,,0.00,weatherlink.com 1.10,2013-03-14 02:07:00,
2013-03-13 22:22:00,25.9,18.0,30.27,WSW,257,7.0,14.0,71,0.00,,,0.00,weatherlink.com 1.10,2013-03-14 02:22:00,
2013-03-13 22:30:00,25.7,17.9,30.27,West,270,6.0,14.0,72,0.00,,SKC,0.00,VWS V14.01,2013-03-14 02:30:00,
2013-03-13 22:37:00,25.8,18.0,30.27,West,281,3.0,14.0,72,0.00,,,0.00,weatherlink.com 1.10,2013-03-14 02:37:00,
2013-03-13 22:52:00,25.6,18.0,30.27,WSW,257,5.0,12.0,72,0.00,,,0.00,weatherlink.com 1.10,2013-03-14 02:52:00,
2013-03-13 23:00:00,25.5,17.8,30.28,West,270,6.0,13.0,72,0.00,,SKC,0.00,VWS V14.01,2013-03-14 03:00:00,
2013-03-13 23:22:00,25.2,18.0,30.28,WSW,246,6.0,14.0,73,0.00,,,0.00,weatherlink.com 1.10,2013-03-14 03:22:00,
2013-03-13 23:30:00,25.2,17.8,30.28,West,270,5.0,14.0,73,0.00,,SKC,0.00,VWS V14.01,2013-03-14 03:30:00,
2013-03-13 23:37:00,25.1,18.0,30.28,WSW,238,3.0,10.0,73,0.00,,,0.00,weatherlink.com 1.10,2013-03-14 03:37:00,
2013-03-13 23:52:00,24.9,17.0,30.28,WSW,254,4.0,9.0,73,0.00,,,0.00,weatherlink.com 1.10,2013-03-14 03:52:00,